Location: Cabobito
(9.9667°N, 67.8000°W)
Time: 22:26:47
(UTC+00:00)

Cosmos 1455 - Pass Details

Date: 18 April 2024
Orbit: 446 x 465 km, 82.5° (Epoch: 23 May)

Event Time Altitude Azimuth Distance (km) Brightness Sun altitude
Rises 23:38:37 0° 202° (SSW) 2,508 5.8 -14.5°
Reaches altitude 10° 23:40:53 10° 214° (SW) 1,634 5.0 -15.0°
Maximum altitude 23:44:00 28° 275° (W) 906 4.2 -15.7°
Drops below altitude 10° 23:47:08 10° 336° (NNW) 1,636 5.3 -16.5°
Sets 23:49:25 0° 348° (NNW) 2,513 6.1 -17.0°
